sat.trackr.live / text

‹ back to catalog

O3B FM2

NORAD 39190 · 2013-031C

PAYLOAD ACTIVE UNKNOWN

§ Identity

Operator
Country
O3B
Launch date
2013-06-25
Launch site
FRGUI
Launch vehicle
Mass (kg)
RCS (m²)
36.08

Purposes: comms

External: N2YO · Heavens-Above · Gunter

§ Orbital elements

Epoch: 2026-09-19T23:21:01.060416Z

Period
287.93 min
Inclination
0.0353°
Eccentricity
0.0002608
Mean motion
5.00116166 rev/d
Perigee alt
8,062.1 km
Apogee alt
8,069.6 km
Semi-major
14,444.0 km
B*
0.0000e+0
RAAN
1.2587°
Arg perigee
174.2752°
Mean anomaly
184.4707°
Rev number
24,184

§ Raw data

O3B FM21 39190U 13031C   26262.97292894 -.00000027  00000+0  00000+0 0  99962 39190   0.0353   1.2587 0002608 174.2752 184.4707  5.00116166241848

JSON: /api/v1/satellites/39190 · /tle

For live sub-satellite position, see the globe view (requires WebGL).

§ Visibility from observer

Set your observer location to see the next 7 days of passes ≥ 10°. The values pass through the URL so the page stays shareable.

No JS? Fill the form by hand. The geolocation button needs JavaScript.